Regional Weather Roundup
Issued by NWS

Home | Current Version | Previous Version | Text Only | Print | Product List | Glossary On
Versions: 1 2 3 4 5 6 7 8 9 10 11 12 13 14 15 16 17 18 19 20 21 22 23 24 25 26 27 28 29 30 31 32 33 34 35 36 37 38 39 40 41 42 43 44 45 46 47 48 49 50
000
ASUS43 KLSX 011307
RWRMO

WEATHER SUMMARY FOR MISSOURI
NATIONAL WEATHER SERVICE SPRINGFIELD MO
800 AM CDT WED JUL 01 2015

NOTE: "FAIR" INDICATES FEW OR NO CLOUDS BELOW 12,000 FEET WITH NO
       SIGNIFICANT WEATHER AND/OR OBSTRUCTIONS TO VISIBILITY.
       CURRENT SKY AND/OR WEATHER CONDITIONS ARE NOT AVAILABLE FOR
       CHILLICOTHE AND FARMINGTON.

MOZ001>031-035>038-043-044-053-054-011400-
...NORTHERN AND WESTERN MISSOURI...

CITY           SKY/WX    TMP DP  RH WIND       PRES   REMARKS
KANSAS CTY INT CLOUDY    69  68  96 SE14      29.83F
KANSAS C DTWN  LGT RAIN  70  68  93 SE7       29.84F FOG
LEE`S SUMMIT   LGT RAIN  69  66  90 SE8       29.89F FOG
ST JOSEPH      LGT RAIN  70  68  93 S9        29.80F
CHILLICOTHE      N/A     72  70  93 S8        29.89R
KIRKSVILLE     LGT RAIN  71  71 100 CALM      29.91R FOG

$$
MOZ066>068-077>081-088>096-101>105-011400-
...SOUTHWEST MISSOURI...

CITY           SKY/WX    TMP DP  RH WIND       PRES   REMARKS
SPRINGFIELD    LGT RAIN  68  65  90 SE10      29.97R
JOPLIN         LGT RAIN  78  71  79 SW5       29.92R

$$
MOZ032>034-039>042-045>050-055>058-069>072-011400-
...CENTRAL MISSOURI...

CITY           SKY/WX    TMP DP  RH WIND       PRES   REMARKS
COLUMBIA       LGT RAIN  69  68  96 S14       29.93R FOG
JEFFERSON CITY RAIN      70  68  93 S9        29.93F FOG
ROLLA          RAIN      68  67  96 S10       29.99R FOG
SEDALIA        CLOUDY    69  67  93 S9        29.91F
WHITEMAN AFB   PTSUNNY   69  69  99 SW17      29.91R
WARRENSBURG    RAIN      68  66  94 S10       29.92F
OSAGE BEACH    CLOUDY    66  64  94 S9        29.99F

$$
MOZ051-052-059>065-011400-
...EAST CENTRAL MISSOURI...

CITY           SKY/WX    TMP DP  RH WIND       PRES   REMARKS
ST LOUIS INTL  CLOUDY    74  67  78 W7        29.92R
SPIRIT OF STL  CLOUDY    71  69  93 W3        29.91R FOG
ST CHARLES     CLOUDY    72  69  90 CALM      29.89F FOG

$$
MOZ072>076-082>087-097>100-106>115-011400-
...SOUTH CENTRAL AND SOUTHEAST MISSOURI...

CITY           SKY/WX    TMP DP  RH WIND       PRES   REMARKS
CAPE GIRARDEAU LGT RAIN  74  71  91 CALM      29.94R
FARMINGTON     CLOUDY    68  66  94 W5        29.99R
POPLAR BLUFF   TSTM      71  69  93 N9        29.94F
WEST PLAINS    RAIN      69  66  90 NW6       30.04R FOG

$$



USA.gov is the U.S. government's official web portal to all federal, state and local government web resources and services.